Simultaneous Nadir Overpasses (SNOs) Predictions

Prediction of SNOs between AQUA and METOP-C Satellite Orbit:

Table of predicted SNOs for the next 14.0 days since TLE Epoch: 11/27/2021
Index Date (AQUA) Time (AQUA) Lat,Lon (AQUA) SZA (AQUA ) Date (METOP-C) Time (METOP-C) Lat,Lon (METOP-C) SZA (METOP-C ) Distance(km) Time Diff (sec)
1 11/28/2021 17:59:12 -73.11, 85.91 85.56 11/28/2021 17:58:05 -73.08, 83.36 85.55 82.66 67
2 11/28/2021 18:48:52 73.75,-107.80 95.11 11/28/2021 18:48:32 73.74,-107.82 95.10 1.31 20
3 11/28/2021 19:38:19 -73.83, 59.65 84.80 11/28/2021 19:39:12 -73.80, 59.67 84.83 3.18 53
4 12/01/2021 13:33:32 -73.43, 151.69 84.77 12/01/2021 13:32:21 -73.37, 150.42 84.80 40.84 71
5 12/01/2021 14:23:06 73.76, -41.38 95.58 12/01/2021 14:22:54 73.74, -41.41 95.56 2.42 12
6 12/01/2021 15:12:33 -73.84, 126.08 84.34 12/01/2021 15:13:33 -73.85, 126.19 84.33 3.57 60
7 12/04/2021 09:07:52 -73.71,-142.46 84.08 12/04/2021 09:06:38 -73.67,-142.49 84.11 4.38 74
8 12/04/2021 09:57:21 73.78, 25.01 96.01 12/04/2021 09:57:16 73.79, 25.12 96.01 3.30 5
9 12/04/2021 10:46:48 -73.86,-167.51 83.92 12/04/2021 10:47:56 -73.85,-167.41 83.93 3.44 68
10 12/07/2021 04:42:06 -73.69, -75.96 83.76 12/07/2021 04:41:00 -73.71, -75.98 83.73 2.92 66
11 12/07/2021 05:31:35 73.77, 91.49 96.33 12/07/2021 05:31:39 73.78, 91.52 96.35 1.98 4
12 12/07/2021 06:21:04 -73.94,-101.25 83.49 12/07/2021 06:22:16 -73.99,-100.66 83.45 18.93 72
13 12/10/2021 00:16:21 -73.73, -9.61 83.43 12/10/2021 00:15:23 -73.70, -9.59 83.45 2.97 58
14 12/10/2021 01:05:48 73.76, 157.95 96.62 12/10/2021 01:06:01 73.78, 157.91 96.63 1.89 13



Historial Predications of SNOs between AQUA and METOP-C
